This is the latest recevied weather packets stored in our database for station/object W5CDN. If no packets are shown the sender has not sent any weather packets the latest 10 day(s).
| Time | Temp. | Humidity | Pressure | Rain* | Wind** | Luminosity | Snow |
|---|---|---|---|---|---|---|---|
| 1788198836 | 35° C | 49% | 1015.8 hPa | 0 mm | - | - | - |
| 1788198536 | 35° C | 47% | 1015.8 hPa | 0 mm | - | - | - |
| 1788198236 | 35° C | 48% | 1015.9 hPa | 0 mm | - | - | - |
| 1788197936 | 33.89° C | 49% | 1015.9 hPa | 0 mm | - | - | - |
| 1788197636 | 35.56° C | 48% | 1016 hPa | 0 mm | - | - | - |
| 1788197336 | 35° C | 47% | 1016.2 hPa | 0 mm | - | - | - |
| 1788197036 | 35.56° C | 47% | 1016.2 hPa | 0 mm | - | - | - |
| 1788196736 | 35.56° C | 46% | 1016.2 hPa | 0 mm | - | - | - |
| 1788196436 | 34.44° C | 48% | 1016.5 hPa | 0 mm | - | - | - |
| 1788196150 | 33.89° C | 50% | 1016.4 hPa | 0 mm | - | - | - |
| 1788195836 | 34.44° C | 49% | 1016.7 hPa | 0 mm | - | - | - |
| 1788195536 | 33.89° C | 49% | 1016.6 hPa | 0 mm | - | - | - |
| 1788195236 | 33.33° C | 51% | 1016.8 hPa | 0 mm | - | - | - |
| 1788194936 | 32.78° C | 51% | 1016.9 hPa | 0 mm | - | - | - |
| 1788194636 | 32.78° C | 51% | 1016.9 hPa | 0 mm | - | - | - |
| 1788194336 | 32.78° C | 52% | 1017 hPa | 0 mm | - | - | - |
| 1788194036 | 33.89° C | 50% | 1016.8 hPa | 0 mm | - | - | - |
| 1788193736 | 32.78° C | 51% | 1017 hPa | 0 mm | - | - | - |
| 1788193436 | 32.78° C | 51% | 1017.2 hPa | 0 mm | - | - | - |
| 1788193136 | 32.78° C | 51% | 1017 hPa | 0 mm | - | - | - |
| 1788192836 | 32.22° C | 53% | 1017 hPa | 0 mm | - | - | - |
| 1788192536 | 32.22° C | 54% | 1017 hPa | 0 mm | - | - | - |
| 1788192236 | 31.67° C | 55% | 1017.2 hPa | 0 mm | - | - | - |
| 1788191936 | 32.22° C | 55% | 1017 hPa | 0 mm | - | - | - |
| 1788191636 | 32.22° C | 55% | 1017 hPa | 0 mm | - | - | - |
* Rain latest hour (hover to see other rain measurements)
** Current wind speed in m/s (hover to see current wind gust speed)